Regional Weather Roundup
Issued by NWS

Home | Current Version | Previous Version | Graphics & Text | Print | Product List | Glossary On
Versions: 1 2 3 4 5 6 7 8 9 10 11 12 13 14 15 16 17 18 19 20 21 22 23 24 25 26 27 28 29 30 31 32 33 34 35 36 37 38 39 40 41 42 43 44 45 46 47 48 49 50
000
ASUS44 KMEG 202310
RWRTN
TENNESSEE HOURLY STATE WEATHER ROUNDUP
NATIONAL WEATHER SERVICE MEMPHIS TN
600 PM CDT WED AUG 20 2014

TNZ002-004-019-021-049-052-054-088>092-210000-
WEST TENNESSEE

CITY           SKY/WX    TMP DP  RH WIND       PRES   REMARKS
MEMPHIS INTL   MOSUNNY   91  69  48 SW10      29.98F HX  96
NWS MEMPHIS      N/A     93 N/A N/A MISG        N/A
JACKSON        MOSUNNY   91  74  57 SW8       29.97S HX 100
DYERSBURG      SUNNY     91  70  49 SW7       29.96F HX  97
UNION CITY     SUNNY     90  75  62 SW5       29.94S HX 100
PARIS          SUNNY     88  73  62 SW8       29.97R HX  96
HUNTINGDON     SUNNY     89  75  63 SW5       29.96F HX  98
LEXINGTON      SUNNY     91  73  55 SW7       29.97S HX 100
SAVANNAH       SUNNY     91  73  55 SW7       29.98F HX 100
$$

TNZ008-025-027-028-033-062-065-066-210000-
NORTH MIDDLE TENNESSEE

CITY           SKY/WX    TMP DP  RH WIND       PRES   REMARKS
NASHVILLE      TSTM      75  70  83 N16G23    30.06R
PORTLAND       CLOUDY    72  66  83 S10       30.07R
CLARKSVILLE      N/A     75  70  84 MISG      30.04R
SMYRNA         CLOUDY    75  69  81 N6        30.04R
MURFREESBORO   CLOUDY    73  70  91 N12       30.05R
COOKEVILLE     SUNNY     70  68  94 NW3       30.08R
GALLATIN       CLOUDY    73  72  97 N13       30.06R
CROSSVILLE     CLOUDY    69  64  84 CALM      30.10R
$$

TNZ061-075-076-078-094-096-097-210000-
SOUTH MIDDLE TENNESSEE

CITY           SKY/WX    TMP DP  RH WIND       PRES   REMARKS
LEWISBURG      CLOUDY    75  66  73 CALM      30.03R
FAYETTEVILLE   SUNNY     90  70  51 W8        30.01R HX  95
TULLAHOMA      MOSUNNY   73  68  83 SE6       30.07R
WINCHESTER     PTSUNNY   72  70  94 SE8       30.04R
MCMINNVILLE    SUNNY     73  73 100 NE5       30.06R
COLUMBIA       MOSUNNY   84  72  65 NE9       30.00R
SHELBYVILLE    SUNNY     77  68  73 E3        30.05R
$$

TNZ017-018-042-046-047-210000-
NORTHEAST TENNESSEE

CITY           SKY/WX    TMP DP  RH WIND       PRES   REMARKS
TRI CITIES     PTSUNNY   75  64  68 S7        30.06R
ELIZABETHTON   CLEAR     72  63  73 NW6       30.07S
$$

TNZ012-013-036-069-073-074-210000-
CENTRAL EAST TENNESSEE

CITY           SKY/WX    TMP DP  RH WIND       PRES   REMARKS
KNOXVILLE      CLOUDY    74  65  73 W12       30.04R
OAK RIDGE      CLOUDY    75  70  84 CALM      30.07R
GATLINBURG     CLEAR     77  66  69 CALM      30.03F
MORRISTOWN     CLEAR     72  70  94 NE3       30.05R
$$

TNZ083-085-099-210000-
SOUTHEAST TENNESSEE

CITY           SKY/WX    TMP DP  RH WIND       PRES   REMARKS
CHATTANOOGA    CLOUDY    76  68  76 S5        30.03S
$$

SKY/WX REPORTED AS FAIR MEANS FEW OR NO CLOUDS BELOW
12 THOUSAND FEET.



USA.gov is the U.S. government's official web portal to all federal, state and local government web resources and services.